Flag Weather past 2 weeks in Liberec, Czech Republic

Now
30 °F

Fog.


Feels Like: 30 °F
Forecast: 30 / 36 °F
Wind: 1 mph from East

Location: Liberec

Current Time: Nov 26, 2014 at 1:41:52 AM

Latest Report: Nov 26, 2014 at 1:00 AM


Visibility: 2 mi

Pressure: 30.35 "Hg

Humidity: 98%

Dew point: 30 °F

Location of LiberecLocation

Historic Weather in Liberec — Graph

°F

Liberec temperature yesterday

Maximum temperature yesterday: 45 °F (at 11:00 AM)
Minimum temperature yesterday: 31 °F (at 11:00 PM)
Average temperature yesterday: 38 °F

Past Weeks' High & Low Weather Summary

 TemperatureHumidityPressure
High57 °F (Nov 12, 3:00 PM)100% (Nov 14, 6:00 AM)30.39 "Hg (Nov 14, 6:00 AM)
Low31 °F (Nov 26, 12:00 AM)65% (Nov 14, 2:00 PM)29.56 "Hg (Nov 16, 6:00 AM)
Average44 °F88%30.03 "Hg
* Reported Midnight between Nov 10 and Nov 11 — Midnight between Nov 25 and Nov 26, Liberec, Weather by CustomWeather, © 2014

Note: Actual official high and low records may vary slightly from our data, if they occured in-between our weather recording intervals... More about our weather records

Advertising

Liberec weather history for previous 24 hours

 ConditionsComfort  
Time TempWeatherWind HumidityBarometerVisibility
12:00 AM
Nov 26
31 °FFog.1 mph98%30.35 "Hg1 mi
11:00 PM
Nov 25
31 °FFog.1 mph96%30.36 "Hg2 mi
10:00 PM33 °FFog.1 mph96%30.36 "Hg2 mi
9:00 PM34 °FFog.2 mph95%30.36 "Hg3 mi
8:00 PM33 °FFog.1 mph91%30.36 "Hg4 mi
7:00 PM35 °FFog.1 mph90%30.36 "Hg4 mi
6:00 PM38 °FFog.2 mph89%30.36 "Hg5 mi
5:00 PM36 °FFog.2 mph90%30.37 "Hg4 mi
4:00 PM39 °FFog.3 mph87%30.35 "Hg5 mi
3:00 PM40 °FFog.3 mph84%30.34 "Hg5 mi
2:00 PM42 °FFog.2 mph78%30.34 "Hg6 mi
1:00 PM42 °FFog.2 mph79%30.34 "Hg6 mi
12:00 PM43 °FFog.2 mph75%30.35 "Hg6 mi
11:00 AM45 °FFog.1 mph77%30.35 "Hg6 mi
10:00 AM40 °FFog.2 mph90%30.37 "Hg5 mi
9:00 AM38 °FFog.1 mph97%30.38 "Hg4 mi
8:00 AM34 °FFog.1 mph98%30.39 "Hg4 mi
7:00 AM35 °FFog.1 mph99%30.38 "Hg2 mi
6:00 AM37 °FChilly.1 mph98%30.37 "Hg1 mi
5:00 AM35 °FChilly.2 mph98%30.37 "Hg1 mi
4:00 AM38 °FFog.1 mph97%30.36 "Hg1 mi
3:00 AM39 °FFog.No wind97%30.35 "Hg1 mi
2:00 AM38 °FFog.1 mph95%30.36 "Hg1 mi
1:00 AM39 °FFog.1 mph95%30.36 "Hg1 mi
Weather by CustomWeather, © 2014

See weather overviewHow to use our weather pages